{"data":{"norad_id":68575,"epoch":"2026-05-25T04:00:03.998880Z","epoch_age_seconds":54469,"freshness":"FRESH","line1":"1 68575U 26072C   26145.16671295 -.00040626  00000+0 -51885-2 0  9991","line2":"2 68575  51.8997 294.9511 0000453 170.8849   9.3350 14.81075569  4170","mean_motion":14.81075569,"eccentricity":4.53e-5,"inclination_deg":51.8997,"raan_deg":294.9511,"arg_perigee_deg":170.8849,"mean_anomaly_deg":9.335,"bstar":-0.0051885,"rev_number":417,"period_min":97.226639216814,"perigee_km":625.61385659573,"apogee_km":626.2484251693,"semimajor_km":7004.0681408825,"source":"CELESTRAK","updated_at":"2026-05-25T13:38:07.922668Z"}}